• Em Portugal
  • Lista de países
  • Para 7 dias
  • Temperatura da água
  • Mapas de satélite
  • Mapa do tempo
  • Widgets de tempo
  • user-avatar
    Iniciar Sessão

    Previsão horária em Algiers

    Hoje, 15 Dezembro, Sexta-feira

    Tempo Temperatura Precipitação Vento Pressão Humidade
    00:00 +11°C° 0 mm 8 m/s 749 mmHg 53%
    01:00 +11°C° 0 mm 8 m/s 749 mmHg 53%
    02:00 +11°C° 0 mm 7 m/s 749 mmHg 54%
    03:00 +10°C° 0 mm 7 m/s 748 mmHg 54%
    04:00 +10°C° 0 mm 7 m/s 748 mmHg 55%
    05:00 +10°C° 0 mm 7 m/s 748 mmHg 56%
    06:00 +10°C° 0 mm 7 m/s 747 mmHg 56%
    07:00 +11°C° 0 mm 7 m/s 747 mmHg 55%
    08:00 +12°C° 0 mm 7 m/s 747 mmHg 54%
    09:00 +13°C° 0 mm 8 m/s 747 mmHg 53%
    10:00 +15°C° 0 mm 8 m/s 747 mmHg 54%
    11:00 +16°C° 0 mm 8 m/s 746 mmHg 56%
    12:00 +17°C° 0 mm 10 m/s 746 mmHg 59%
    13:00 +17°C° 0 mm 9 m/s 746 mmHg 59%
    14:00 +18°C° 0 mm 8 m/s 745 mmHg 59%
    15:00 +18°C° 0 mm 7 m/s 745 mmHg 59%
    16:00 +16°C° 0,2 mm 7 m/s 745 mmHg 64%
    17:00 +15°C° 0,2 mm 6 m/s 745 mmHg 70%
    18:00 +14°C° 0,2 mm 6 m/s 745 mmHg 75%
    19:00 +14°C° 0,3 mm 5 m/s 745 mmHg 76%
    20:00 +13°C° 0,3 mm 5 m/s 745 mmHg 78%
    21:00 +13°C° 0,3 mm 5 m/s 745 mmHg 79%
    22:00 +13°C° 0,9 mm 5 m/s 745 mmHg 81%
    23:00 +13°C° 0,9 mm 5 m/s 745 mmHg 82%

    Amanhã, 16 Dezembro, Sábado

    Tempo Temperatura Precipitação Vento Pressão Humidade
    00:00 +14°C° 0,9 mm 4 m/s 745 mmHg 84%
    01:00 +13°C° 0,8 mm 4 m/s 745 mmHg 88%
    02:00 +13°C° 0,8 mm 5 m/s 745 mmHg 91%
    03:00 +13°C° 0,8 mm 5 m/s 745 mmHg 95%
    04:00 +12°C° 0,8 mm 4 m/s 746 mmHg 95%
    05:00 +12°C° 0,8 mm 4 m/s 746 mmHg 95%
    06:00 +12°C° 0,8 mm 3 m/s 746 mmHg 94%
    07:00 +11°C° 0,2 mm 3 m/s 747 mmHg 92%
    08:00 +11°C° 0,2 mm 3 m/s 748 mmHg 90%
    09:00 +11°C° 0,2 mm 3 m/s 748 mmHg 88%
    10:00 +12°C° 0,1 mm 3 m/s 749 mmHg 81%
    11:00 +13°C° 0,1 mm 4 m/s 749 mmHg 74%
    12:00 +13°C° 0,1 mm 4 m/s 749 mmHg 67%
    13:00 +13°C° 0,1 mm 5 m/s 750 mmHg 66%
    14:00 +13°C° 0,1 mm 5 m/s 750 mmHg 64%
    15:00 +13°C° 0,1 mm 5 m/s 750 mmHg 63%
    16:00 +12°C° 0,1 mm 5 m/s 751 mmHg 67%
    17:00 +11°C° 0,1 mm 4 m/s 751 mmHg 71%
    18:00 +10°C° 0,1 mm 4 m/s 752 mmHg 75%
    19:00 +10°C° 0,3 mm 3 m/s 752 mmHg 76%
    20:00 +9°C° 0,3 mm 3 m/s 753 mmHg 77%
    21:00 +9°C° 0,3 mm 2 m/s 753 mmHg 79%
    22:00 +9°C° 0,3 mm 2 m/s 753 mmHg 80%
    23:00 +9°C° 0,3 mm 2 m/s 753 mmHg 80%

    Depois de amanhã, 17 Dezembro, Domingo

    Tempo Temperatura Precipitação Vento Pressão Humidade
    00:00 +9°C° 0,3 mm 2 m/s 754 mmHg 81%
    01:00 +8°C° 0,3 mm 2 m/s 754 mmHg 82%
    02:00 +8°C° 0,3 mm 2 m/s 754 mmHg 82%
    03:00 +8°C° 0,3 mm 2 m/s 754 mmHg 83%
    04:00 +8°C° 0,4 mm 2 m/s 754 mmHg 82%
    05:00 +8°C° 0,4 mm 2 m/s 754 mmHg 82%
    06:00 +8°C° 0,4 mm 2 m/s 754 mmHg 81%
    07:00 +9°C° 0,4 mm 2 m/s 755 mmHg 77%
    08:00 +10°C° 0,4 mm 2 m/s 756 mmHg 74%
    09:00 +12°C° 0,4 mm 1 m/s 756 mmHg 70%
    10:00 +12°C° 0,3 mm 2 m/s 756 mmHg 67%
    11:00 +12°C° 0,3 mm 3 m/s 756 mmHg 65%
    12:00 +12°C° 0,3 mm 3 m/s 756 mmHg 62%
    13:00 +12°C° 0,4 mm 4 m/s 756 mmHg 64%
    14:00 +12°C° 0,4 mm 5 m/s 756 mmHg 66%
    15:00 +11°C° 0,4 mm 6 m/s 756 mmHg 67%
    16:00 +10°C° 0,3 mm 5 m/s 757 mmHg 74%
    17:00 +9°C° 0,3 mm 5 m/s 757 mmHg 81%
    18:00 +8°C° 0,3 mm 5 m/s 758 mmHg 88%
    19:00 +8°C° 0,1 mm 5 m/s 758 mmHg 87%
    20:00 +8°C° 0,1 mm 5 m/s 759 mmHg 87%
    21:00 +8°C° 0,1 mm 4 m/s 759 mmHg 86%
    22:00 +7°C° 0,1 mm 4 m/s 760 mmHg 86%
    23:00 +7°C° 0,1 mm 4 m/s 760 mmHg 86%

    18 Dezembro, Segunda-feira

    Tempo Temperatura Precipitação Vento Pressão Humidade
    00:00 +6°C° 0,1 mm 4 m/s 760 mmHg 85%
    01:00 +6°C° 0,1 mm 4 m/s 760 mmHg 85%
    02:00 +7°C° 0,1 mm 3 m/s 760 mmHg 86%
    03:00 +7°C° 0,1 mm 3 m/s 760 mmHg 86%
    04:00 +7°C° 0,1 mm 3 m/s 760 mmHg 86%
    05:00 +6°C° 0,1 mm 2 m/s 760 mmHg 86%
    06:00 +6°C° 0,1 mm 2 m/s 760 mmHg 86%
    07:00 +7°C° 0,1 mm 2 m/s 761 mmHg 83%
    08:00 +8°C° 0,1 mm 2 m/s 761 mmHg 80%
    09:00 +9°C° 0,1 mm 2 m/s 761 mmHg 77%
    10:00 +10°C° 0,1 mm 2 m/s 761 mmHg 72%
    11:00 +11°C° 0,1 mm 3 m/s 761 mmHg 67%
    12:00 +12°C° 0,1 mm 3 m/s 761 mmHg 62%
    13:00 +12°C° 0,2 mm 3 m/s 761 mmHg 65%
    14:00 +11°C° 0,2 mm 4 m/s 760 mmHg 67%
    15:00 +11°C° 0,2 mm 4 m/s 760 mmHg 69%
    16:00 +10°C° 0,1 mm 3 m/s 760 mmHg 73%
    17:00 +10°C° 0,1 mm 3 m/s 760 mmHg 77%
    18:00 +9°C° 0,1 mm 3 m/s 760 mmHg 81%
    19:00 +9°C° 0 mm 2 m/s 760 mmHg 82%
    20:00 +8°C° 0 mm 2 m/s 760 mmHg 82%
    21:00 +8°C° 0 mm 2 m/s 760 mmHg 83%
    22:00 +8°C° 0 mm 2 m/s 760 mmHg 83%
    23:00 +8°C° 0 mm 2 m/s 760 mmHg 84%

    19 Dezembro, Terça-feira

    Tempo Temperatura Precipitação Vento Pressão Humidade
    00:00 +7°C° 0 mm 2 m/s 760 mmHg 84%
    01:00 +7°C° 0 mm 2 m/s 759 mmHg 85%
    02:00 +7°C° 0 mm 3 m/s 759 mmHg 85%
    03:00 +7°C° 0 mm 3 m/s 758 mmHg 86%
    04:00 +7°C° 0,1 mm 3 m/s 758 mmHg 85%
    05:00 +6°C° 0,1 mm 4 m/s 758 mmHg 84%
    06:00 +6°C° 0,1 mm 4 m/s 758 mmHg 83%
    07:00 +7°C° 0,4 mm 4 m/s 758 mmHg 81%
    08:00 +7°C° 0,4 mm 4 m/s 759 mmHg 80%
    09:00 +8°C° 0,4 mm 4 m/s 759 mmHg 78%
    10:00 +8°C° 0,9 mm 5 m/s 759 mmHg 79%
    11:00 +9°C° 0,9 mm 5 m/s 758 mmHg 80%
    12:00 +9°C° 0,9 mm 6 m/s 758 mmHg 81%
    13:00 +9°C° 0,9 mm 6 m/s 758 mmHg 83%
    14:00 +9°C° 0,9 mm 6 m/s 757 mmHg 85%
    15:00 +9°C° 0,9 mm 7 m/s 757 mmHg 87%
    16:00 +9°C° 0,7 mm 7 m/s 757 mmHg 87%
    17:00 +9°C° 0,7 mm 7 m/s 757 mmHg 88%
    18:00 +7°C° 0,7 mm 8 m/s 757 mmHg 88%
    19:00 +9°C° 1 mm 8 m/s 757 mmHg 88%
    20:00 +9°C° 1 mm 8 m/s 757 mmHg 89%
    21:00 +8°C° 1 mm 9 m/s 757 mmHg 89%
    22:00 +8°C° 1,2 mm 9 m/s 757 mmHg 89%
    23:00 +8°C° 1,2 mm 9 m/s 757 mmHg 88%

    20 Dezembro, Quarta-feira

    Tempo Temperatura Precipitação Vento Pressão Humidade
    00:00 +8°C° 1,2 mm 10 m/s 757 mmHg 88%
    01:00 +8°C° 1,1 mm 10 m/s 757 mmHg 89%
    02:00 +8°C° 1,1 mm 10 m/s 757 mmHg 89%
    03:00 +8°C° 1,1 mm 10 m/s 757 mmHg 90%
    04:00 +8°C° 0,7 mm 10 m/s 758 mmHg 90%
    05:00 +8°C° 0,7 mm 9 m/s 758 mmHg 90%
    06:00 +8°C° 0,7 mm 9 m/s 759 mmHg 91%
    07:00 +8°C° 0,6 mm 9 m/s 759 mmHg 89%
    08:00 +10°C° 0,6 mm 9 m/s 760 mmHg 87%
    09:00 +10°C° 0,6 mm 9 m/s 760 mmHg 86%
    10:00 +10°C° 0,4 mm 8 m/s 760 mmHg 83%
    11:00 +11°C° 0,4 mm 8 m/s 761 mmHg 80%
    12:00 +11°C° 0,4 mm 8 m/s 761 mmHg 78%
    13:00 +11°C° 0,3 mm 7 m/s 761 mmHg 77%
    14:00 +11°C° 0,3 mm 7 m/s 761 mmHg 76%
    15:00 +11°C° 0,3 mm 7 m/s 761 mmHg 75%
    16:00 +10°C° 0,2 mm 7 m/s 761 mmHg 79%
    17:00 +9°C° 0,2 mm 6 m/s 761 mmHg 84%
    18:00 +9°C° 0,2 mm 6 m/s 762 mmHg 88%
    19:00 +9°C° 0,1 mm 6 m/s 762 mmHg 89%
    20:00 +9°C° 0,1 mm 5 m/s 762 mmHg 89%
    21:00 +9°C° 0,1 mm 5 m/s 762 mmHg 89%
    22:00 +8°C° 0,1 mm 5 m/s 762 mmHg 89%
    23:00 +8°C° 0,1 mm 5 m/s 762 mmHg 89%
    Mostrar mais